Time,TemperatureF,DewpointF,PressureIn,WindDirection,WindDirectionDegrees,WindSpeedMPH,WindSpeedGustMPH,Humidity,HourlyPrecipIn,Conditions,Clouds,dailyrainin,SoftwareType,DateUTC
2013-02-26 00:01:00,28.9,-99.9,0.00,SE,135,0.0,0.0,-99,0.00,NA,NA,-99.99,WeatherLink_script,2013-02-26 05:01:00,
2013-02-26 00:06:00,28.8,-99.9,0.00,SSE,157,0.0,0.0,-99,0.00,NA,NA,-99.99,WeatherLink_script,2013-02-26 05:06:00,
2013-02-26 00:12:00,28.8,-99.9,0.00,South,179,0.0,0.0,-99,0.00,NA,NA,-99.99,WeatherLink_script,2013-02-26 05:12:00,
2013-02-26 00:17:00,28.8,-99.9,0.00,SSW,201,0.0,0.0,-99,0.00,NA,NA,-99.99,WeatherLink_script,2013-02-26 05:17:00,
2013-02-26 00:22:00,28.9,-99.9,0.00,South,183,0.0,0.0,-99,0.00,NA,NA,-99.99,WeatherLink_script,2013-02-26 05:22:00,
2013-02-26 00:28:00,28.9,-99.9,0.00,South,179,0.0,0.0,-99,0.00,NA,NA,-99.99,WeatherLink_script,2013-02-26 05:28:00,
2013-02-26 00:33:00,28.9,-99.9,0.00,South,179,0.0,0.0,-99,0.00,NA,NA,-99.99,WeatherLink_script,2013-02-26 05:33:00,
2013-02-26 00:38:00,28.9,-99.9,0.00,SSE,163,0.0,0.0,-99,0.00,NA,NA,-99.99,WeatherLink_script,2013-02-26 05:38:00,
2013-02-26 00:44:00,28.9,-99.9,0.00,SSE,163,0.0,0.0,-99,0.00,NA,NA,-99.99,WeatherLink_script,2013-02-26 05:44:00,
2013-02-26 00:49:00,28.9,-99.9,0.00,South,187,0.0,0.0,-99,0.00,NA,NA,-99.99,WeatherLink_script,2013-02-26 05:49:00,
2013-02-26 00:54:00,28.9,-99.9,0.00,SSE,158,0.0,0.0,-99,0.00,NA,NA,-99.99,WeatherLink_script,2013-02-26 05:54:00,
2013-02-26 01:00:00,28.9,-99.9,0.00,SSW,201,0.0,0.0,-99,0.00,NA,NA,-99.99,WeatherLink_script,2013-02-26 06:00:00,
2013-02-26 01:05:00,29.0,-99.9,0.00,South,182,0.0,0.0,-99,0.00,NA,NA,-99.99,WeatherLink_script,2013-02-26 06:05:00,
2013-02-26 01:10:00,28.9,-99.9,0.00,West,273,0.0,0.0,-99,0.00,NA,NA,-99.99,WeatherLink_script,2013-02-26 06:10:00,
2013-02-26 01:16:00,28.9,-99.9,0.00,SSW,198,0.0,0.0,-99,0.00,NA,NA,-99.99,WeatherLink_script,2013-02-26 06:16:00,
2013-02-26 01:21:00,28.9,-99.9,0.00,South,180,0.0,0.0,-99,0.00,NA,NA,-99.99,WeatherLink_script,2013-02-26 06:21:00,
2013-02-26 01:26:00,28.8,-99.9,0.00,South,180,0.0,0.0,-99,0.00,NA,NA,-99.99,WeatherLink_script,2013-02-26 06:26:00,
2013-02-26 01:32:00,28.6,-99.9,0.00,NNW,346,0.0,0.0,-99,0.00,NA,NA,-99.99,WeatherLink_script,2013-02-26 06:32:00,
2013-02-26 01:37:00,28.5,-99.9,0.00,South,180,0.0,0.0,-99,0.00,NA,NA,-99.99,WeatherLink_script,2013-02-26 06:37:00,
2013-02-26 01:42:00,28.6,-99.9,0.00,SE,144,0.0,0.0,-99,0.00,NA,NA,-99.99,WeatherLink_script,2013-02-26 06:42:00,
2013-02-26 01:48:00,28.5,-99.9,0.00,NE,38,0.0,0.0,-99,0.00,NA,NA,-99.99,WeatherLink_script,2013-02-26 06:48:00,
2013-02-26 01:53:00,28.5,-99.9,0.00,ENE,61,0.0,0.0,-99,0.00,NA,NA,-99.99,WeatherLink_script,2013-02-26 06:53:00,
2013-02-26 01:58:00,28.2,-99.9,0.00,NNW,333,0.0,0.0,-99,0.00,NA,NA,-99.99,WeatherLink_script,2013-02-26 06:58:00,
2013-02-26 02:04:00,28.1,-99.9,0.00,NNW,339,0.0,0.0,-99,0.00,NA,NA,-99.99,WeatherLink_script,2013-02-26 07:04:00,
2013-02-26 02:09:00,28.2,-99.9,0.00,South,181,0.0,0.0,-99,0.00,NA,NA,-99.99,WeatherLink_script,2013-02-26 07:09:00,
2013-02-26 02:14:00,28.3,-99.9,0.00,NW,312,0.0,0.0,-99,0.00,NA,NA,-99.99,WeatherLink_script,2013-02-26 07:14:00,
2013-02-26 02:20:00,28.4,-99.9,0.00,NW,314,0.0,0.0,-99,0.00,NA,NA,-99.99,WeatherLink_script,2013-02-26 07:20:00,
2013-02-26 02:25:00,28.4,-99.9,0.00,WSW,237,0.0,0.0,-99,0.00,NA,NA,-99.99,WeatherLink_script,2013-02-26 07:25:00,
2013-02-26 02:30:00,28.3,-99.9,0.00,WNW,301,0.0,0.0,-99,0.00,NA,NA,-99.99,WeatherLink_script,2013-02-26 07:30:00,
2013-02-26 02:36:00,28.4,-99.9,0.00,SSE,157,0.0,0.0,-99,0.00,NA,NA,-99.99,WeatherLink_script,2013-02-26 07:36:00,
2013-02-26 02:41:00,28.4,-99.9,0.00,SSE,156,0.0,0.0,-99,0.00,NA,NA,-99.99,WeatherLink_script,2013-02-26 07:41:00,
2013-02-26 02:46:00,28.4,-99.9,0.00,South,169,0.0,0.0,-99,0.00,NA,NA,-99.99,WeatherLink_script,2013-02-26 07:46:00,
2013-02-26 02:52:00,28.5,-99.9,0.00,South,177,0.0,0.0,-99,0.00,NA,NA,-99.99,WeatherLink_script,2013-02-26 07:52:00,
2013-02-26 02:57:00,28.5,-99.9,0.00,South,181,0.0,0.0,-99,0.00,NA,NA,-99.99,WeatherLink_script,2013-02-26 07:57:00,
2013-02-26 03:02:00,28.5,-99.9,0.00,South,187,0.0,0.0,-99,0.00,NA,NA,-99.99,WeatherLink_script,2013-02-26 08:02:00,
2013-02-26 03:08:00,28.6,-99.9,0.00,WSW,252,0.0,0.0,-99,0.00,NA,NA,-99.99,WeatherLink_script,2013-02-26 08:08:00,
2013-02-26 03:13:00,28.5,-99.9,0.00,WSW,250,0.0,0.0,-99,0.00,NA,NA,-99.99,WeatherLink_script,2013-02-26 08:13:00,
2013-02-26 03:18:00,28.6,-99.9,0.00,SSW,202,0.0,0.0,-99,0.00,NA,NA,-99.99,WeatherLink_script,2013-02-26 08:18:00,
2013-02-26 03:24:00,28.7,-99.9,0.00,SSW,202,0.0,0.0,-99,0.00,NA,NA,-99.99,WeatherLink_script,2013-02-26 08:24:00,
2013-02-26 03:29:00,28.6,-99.9,0.00,South,173,0.0,0.0,-99,0.00,NA,NA,-99.99,WeatherLink_script,2013-02-26 08:29:00,
2013-02-26 03:34:00,28.4,-99.9,0.00,SSW,193,0.0,0.0,-99,0.00,NA,NA,-99.99,WeatherLink_script,2013-02-26 08:34:00,
2013-02-26 03:40:00,28.2,-99.9,0.00,South,180,0.0,0.0,-99,0.00,NA,NA,-99.99,WeatherLink_script,2013-02-26 08:40:00,
2013-02-26 03:45:00,27.9,-99.9,0.00,NNW,344,0.1,0.0,-99,0.00,NA,NA,-99.99,WeatherLink_script,2013-02-26 08:45:00,
2013-02-26 03:50:00,27.3,-99.9,0.00,NNW,345,0.0,0.0,-99,0.00,NA,NA,-99.99,WeatherLink_script,2013-02-26 08:50:00,
2013-02-26 03:56:00,27.2,-99.9,0.00,NNW,332,0.0,0.0,-99,0.00,NA,NA,-99.99,WeatherLink_script,2013-02-26 08:56:00,
2013-02-26 04:01:00,27.6,-99.9,0.00,ENE,66,0.0,0.0,-99,0.00,NA,NA,-99.99,WeatherLink_script,2013-02-26 09:01:00,
2013-02-26 04:06:00,27.9,-99.9,0.00,North,359,0.0,0.0,-99,0.00,NA,NA,-99.99,WeatherLink_script,2013-02-26 09:06:00,
2013-02-26 04:12:00,27.8,-99.9,0.00,NNW,327,0.0,0.0,-99,0.00,NA,NA,-99.99,WeatherLink_script,2013-02-26 09:12:00,
2013-02-26 04:17:00,27.7,-99.9,0.00,South,178,0.0,0.0,-99,0.00,NA,NA,-99.99,WeatherLink_script,2013-02-26 09:17:00,
2013-02-26 04:22:00,27.6,-99.9,0.00,SSE,149,0.0,0.0,-99,0.00,NA,NA,-99.99,WeatherLink_script,2013-02-26 09:22:00,
2013-02-26 04:28:00,27.6,-99.9,0.00,SE,135,0.0,0.0,-99,0.00,NA,NA,-99.99,WeatherLink_script,2013-02-26 09:28:00,
2013-02-26 04:33:00,27.8,-99.9,0.00,SSE,151,0.0,0.0,-99,0.00,NA,NA,-99.99,WeatherLink_script,2013-02-26 09:33:00,
2013-02-26 04:38:00,27.9,-99.9,0.00,South,178,0.0,0.0,-99,0.00,NA,NA,-99.99,WeatherLink_script,2013-02-26 09:38:00,
2013-02-26 04:44:00,28.2,-99.9,0.00,SSW,196,0.0,0.0,-99,0.00,NA,NA,-99.99,WeatherLink_script,2013-02-26 09:44:00,
2013-02-26 04:49:00,28.2,-99.9,0.00,NW,324,0.0,0.0,-99,0.00,NA,NA,-99.99,WeatherLink_script,2013-02-26 09:49:00,
2013-02-26 04:54:00,28.3,-99.9,0.00,North,357,0.0,0.0,-99,0.00,NA,NA,-99.99,WeatherLink_script,2013-02-26 09:54:00,
2013-02-26 05:00:00,28.5,-99.9,0.00,SSW,202,0.0,0.0,-99,0.00,NA,NA,-99.99,WeatherLink_script,2013-02-26 10:00:00,
2013-02-26 05:05:00,28.6,-99.9,0.00,SSW,202,0.0,0.0,-99,0.00,NA,NA,-99.99,WeatherLink_script,2013-02-26 10:05:00,
2013-02-26 05:10:00,28.6,-99.9,0.00,South,171,0.0,0.0,-99,0.00,NA,NA,-99.99,WeatherLink_script,2013-02-26 10:10:00,
2013-02-26 05:16:00,28.3,-99.9,0.00,SSE,157,0.0,0.0,-99,0.00,NA,NA,-99.99,WeatherLink_script,2013-02-26 10:16:00,
2013-02-26 05:21:00,27.8,-99.9,0.00,NNW,348,0.0,0.0,-99,0.00,NA,NA,-99.99,WeatherLink_script,2013-02-26 10:21:00,
2013-02-26 05:26:00,27.2,-99.9,0.00,NW,322,0.0,0.0,-99,0.00,NA,NA,-99.99,WeatherLink_script,2013-02-26 10:26:00,
2013-02-26 05:32:00,27.0,-99.9,0.00,NW,305,0.0,0.0,-99,0.00,NA,NA,-99.99,WeatherLink_script,2013-02-26 10:32:00,
2013-02-26 05:37:00,27.4,-99.9,0.00,WNW,288,0.0,0.0,-99,0.00,NA,NA,-99.99,WeatherLink_script,2013-02-26 10:37:00,
2013-02-26 05:42:00,27.8,-99.9,0.00,NNW,327,0.0,0.0,-99,0.00,NA,NA,-99.99,WeatherLink_script,2013-02-26 10:42:00,
2013-02-26 05:48:00,28.0,-99.9,0.00,West,271,0.0,0.0,-99,0.00,NA,NA,-99.99,WeatherLink_script,2013-02-26 10:48:00,
2013-02-26 05:53:00,27.9,-99.9,0.00,South,180,0.0,0.0,-99,0.00,NA,NA,-99.99,WeatherLink_script,2013-02-26 10:53:00,
2013-02-26 05:58:00,27.9,-99.9,0.00,South,180,0.0,0.0,-99,0.00,NA,NA,-99.99,WeatherLink_script,2013-02-26 10:58:00,
2013-02-26 06:04:00,27.8,-99.9,0.00,South,180,0.0,0.0,-99,0.00,NA,NA,-99.99,WeatherLink_script,2013-02-26 11:04:00,
2013-02-26 06:09:00,28.0,-99.9,0.00,South,180,0.0,0.0,-99,0.00,NA,NA,-99.99,WeatherLink_script,2013-02-26 11:09:00,
2013-02-26 06:14:00,28.2,-99.9,0.00,South,180,0.0,0.0,-99,0.00,NA,NA,-99.99,WeatherLink_script,2013-02-26 11:14:00,
2013-02-26 06:20:00,28.2,-99.9,0.00,South,180,0.0,0.0,-99,0.00,NA,NA,-99.99,WeatherLink_script,2013-02-26 11:20:00,
2013-02-26 06:25:00,28.3,-99.9,0.00,SSW,202,0.0,0.0,-99,0.00,NA,NA,-99.99,WeatherLink_script,2013-02-26 11:25:00,
2013-02-26 06:30:00,28.4,-99.9,0.00,South,180,0.0,0.0,-99,0.00,NA,NA,-99.99,WeatherLink_script,2013-02-26 11:30:00,
2013-02-26 06:36:00,28.4,-99.9,0.00,SSW,202,0.0,0.0,-99,0.00,NA,NA,-99.99,WeatherLink_script,2013-02-26 11:36:00,
2013-02-26 06:41:00,28.5,-99.9,0.00,SSW,202,0.0,0.0,-99,0.00,NA,NA,-99.99,WeatherLink_script,2013-02-26 11:41:00,
2013-02-26 06:46:00,28.6,-99.9,0.00,SSW,202,0.0,0.0,-99,0.00,NA,NA,-99.99,WeatherLink_script,2013-02-26 11:46:00,
2013-02-26 06:52:00,28.6,-99.9,0.00,SSW,202,0.0,0.0,-99,0.00,NA,NA,-99.99,WeatherLink_script,2013-02-26 11:52:00,
2013-02-26 06:57:00,28.7,-99.9,0.00,NE,36,0.0,0.0,-99,0.00,NA,NA,-99.99,WeatherLink_script,2013-02-26 11:57:00,
2013-02-26 07:02:00,28.9,-99.9,0.00,NNE,22,0.0,0.0,-99,0.00,NA,NA,-99.99,WeatherLink_script,2013-02-26 12:02:00,
2013-02-26 07:08:00,29.1,-99.9,0.00,South,179,0.0,0.0,-99,0.00,NA,NA,-99.99,WeatherLink_script,2013-02-26 12:08:00,
2013-02-26 07:13:00,28.8,-99.9,0.00,East,97,0.0,0.0,-99,0.00,NA,NA,-99.99,WeatherLink_script,2013-02-26 12:13:00,
2013-02-26 07:18:00,28.8,-99.9,0.00,NNW,336,0.0,0.0,-99,0.00,NA,NA,-99.99,WeatherLink_script,2013-02-26 12:18:00,
2013-02-26 07:24:00,28.6,-99.9,0.00,NNE,12,0.0,0.0,-99,0.00,NA,NA,-99.99,WeatherLink_script,2013-02-26 12:24:00,
2013-02-26 07:29:00,28.9,-99.9,0.00,NNW,329,0.0,0.0,-99,0.00,NA,NA,-99.99,WeatherLink_script,2013-02-26 12:29:00,
2013-02-26 07:34:00,29.3,-99.9,0.00,North,357,0.0,0.0,-99,0.00,NA,NA,-99.99,WeatherLink_script,2013-02-26 12:34:00,
2013-02-26 07:40:00,29.8,-99.9,0.00,NW,312,0.0,0.0,-99,0.00,NA,NA,-99.99,WeatherLink_script,2013-02-26 12:40:00,
2013-02-26 07:45:00,29.9,-99.9,0.00,ESE,118,0.0,0.0,-99,0.00,NA,NA,-99.99,WeatherLink_script,2013-02-26 12:45:00,
2013-02-26 07:50:00,30.9,-99.9,0.00,NW,323,0.0,0.0,-99,0.00,NA,NA,-99.99,WeatherLink_script,2013-02-26 12:50:00,
2013-02-26 07:56:00,31.1,-99.9,0.00,West,275,0.0,0.0,-99,0.00,NA,NA,-99.99,WeatherLink_script,2013-02-26 12:56:00,
2013-02-26 08:01:00,31.3,-99.9,0.00,WNW,301,0.0,0.0,-99,0.00,NA,NA,-99.99,WeatherLink_script,2013-02-26 13:01:00,
2013-02-26 08:06:00,31.9,-99.9,0.00,South,182,0.0,0.0,-99,0.00,NA,NA,-99.99,WeatherLink_script,2013-02-26 13:06:00,
2013-02-26 08:12:00,32.3,-99.9,0.00,WNW,286,0.0,0.0,-99,0.00,NA,NA,-99.99,WeatherLink_script,2013-02-26 13:12:00,
2013-02-26 08:17:00,31.9,-99.9,0.00,East,82,0.0,0.0,-99,0.00,NA,NA,-99.99,WeatherLink_script,2013-02-26 13:17:00,
2013-02-26 08:22:00,32.5,-99.9,0.00,WNW,292,0.0,0.0,-99,0.00,NA,NA,-99.99,WeatherLink_script,2013-02-26 13:22:00,
2013-02-26 08:28:00,32.4,-99.9,0.00,NW,308,0.0,0.0,-99,0.00,NA,NA,-99.99,WeatherLink_script,2013-02-26 13:28:00,
2013-02-26 08:33:00,33.7,-99.9,0.00,SE,145,0.0,0.0,-99,0.00,NA,NA,-99.99,WeatherLink_script,2013-02-26 13:33:00,
2013-02-26 08:38:00,33.8,-99.9,0.00,South,179,0.0,0.0,-99,0.00,NA,NA,-99.99,WeatherLink_script,2013-02-26 13:38:00,
2013-02-26 08:44:00,34.1,-99.9,0.00,NW,311,0.0,0.0,-99,0.00,NA,NA,-99.99,WeatherLink_script,2013-02-26 13:44:00,
2013-02-26 08:49:00,34.9,-99.9,0.00,WNW,296,0.0,0.0,-99,0.00,NA,NA,-99.99,WeatherLink_script,2013-02-26 13:49:00,
2013-02-26 08:54:00,34.1,-99.9,0.00,NW,315,0.1,0.0,-99,0.00,NA,NA,-99.99,WeatherLink_script,2013-02-26 13:54:00,
2013-02-26 09:00:00,34.1,-99.9,0.00,NW,320,0.0,0.0,-99,0.00,NA,NA,-99.99,WeatherLink_script,2013-02-26 14:00:00,
2013-02-26 09:05:00,34.9,-99.9,0.00,NW,312,0.0,0.0,-99,0.00,NA,NA,-99.99,WeatherLink_script,2013-02-26 14:05:00,
2013-02-26 09:10:00,35.5,-99.9,0.00,NW,308,0.0,0.0,-99,0.00,NA,NA,-99.99,WeatherLink_script,2013-02-26 14:10:00,
2013-02-26 09:15:00,38.0,-99.9,0.00,NNW,335,0.8,1.0,-99,0.00,NA,NA,-99.99,WeatherLink_script,2013-02-26 14:15:00,
2013-02-26 09:21:00,38.8,-99.9,0.00,NW,319,0.5,1.0,-99,0.00,NA,NA,-99.99,WeatherLink_script,2013-02-26 14:21:00,
2013-02-26 09:26:00,40.4,-99.9,0.00,NW,318,0.2,1.0,-99,0.00,NA,NA,-99.99,WeatherLink_script,2013-02-26 14:26:00,
2013-02-26 09:31:00,42.6,-99.9,0.00,NW,322,0.2,1.0,-99,0.00,NA,NA,-99.99,WeatherLink_script,2013-02-26 14:31:00,
2013-02-26 09:37:00,43.8,-99.9,0.00,North,355,0.2,0.0,-99,0.00,NA,NA,-99.99,WeatherLink_script,2013-02-26 14:37:00,
2013-02-26 09:42:00,44.3,-99.9,0.00,North,4,0.6,0.0,-99,0.00,NA,NA,-99.99,WeatherLink_script,2013-02-26 14:42:00,
2013-02-26 09:48:00,44.0,-99.9,0.00,NW,325,0.6,1.0,-99,0.00,NA,NA,-99.99,WeatherLink_script,2013-02-26 14:48:00,
2013-02-26 09:53:00,48.6,-99.9,0.00,WSW,247,0.0,1.0,-99,0.00,NA,NA,-99.99,WeatherLink_script,2013-02-26 14:53:00,
2013-02-26 09:58:00,50.1,-99.9,0.00,SSE,147,0.0,1.0,-99,0.00,NA,NA,-99.99,WeatherLink_script,2013-02-26 14:58:00,
2013-02-26 10:04:00,43.5,-99.9,0.00,South,186,0.0,1.0,-99,0.00,NA,NA,-99.99,WeatherLink_script,2013-02-26 15:04:00,
2013-02-26 10:09:00,41.0,-99.9,0.00,South,174,0.3,1.0,-99,0.00,NA,NA,-99.99,WeatherLink_script,2013-02-26 15:09:00,
2013-02-26 10:14:00,39.3,-99.9,0.00,SSE,164,1.5,2.0,-99,0.00,NA,NA,-99.99,WeatherLink_script,2013-02-26 15:14:00,
2013-02-26 10:20:00,41.3,-99.9,0.00,SSE,166,1.5,2.0,-99,0.00,NA,NA,-99.99,WeatherLink_script,2013-02-26 15:20:00,
2013-02-26 10:25:00,43.8,-99.9,0.00,SSE,163,1.7,3.0,-99,0.00,NA,NA,-99.99,WeatherLink_script,2013-02-26 15:25:00,
2013-02-26 10:30:00,43.8,-99.9,0.00,SE,145,0.7,3.0,-99,0.00,NA,NA,-99.99,WeatherLink_script,2013-02-26 15:30:00,
2013-02-26 10:36:00,43.2,-99.9,0.00,SSE,157,1.8,3.0,-99,0.00,NA,NA,-99.99,WeatherLink_script,2013-02-26 15:36:00,
2013-02-26 10:41:00,43.0,-99.9,0.00,SE,132,1.6,3.0,-99,0.00,NA,NA,-99.99,WeatherLink_script,2013-02-26 15:41:00,
2013-02-26 10:46:00,42.4,-99.9,0.00,SSE,153,1.4,3.0,-99,0.00,NA,NA,-99.99,WeatherLink_script,2013-02-26 15:46:00,
2013-02-26 10:52:00,41.7,-99.9,0.00,SSE,167,1.9,3.0,-99,0.00,NA,NA,-99.99,WeatherLink_script,2013-02-26 15:52:00,
2013-02-26 10:57:00,40.9,-99.9,0.00,SE,136,1.4,3.0,-99,0.00,NA,NA,-99.99,WeatherLink_script,2013-02-26 15:57:00,
2013-02-26 11:02:00,41.3,-99.9,0.00,SE,139,1.3,3.0,-99,0.00,NA,NA,-99.99,WeatherLink_script,2013-02-26 16:02:00,
2013-02-26 11:08:00,41.6,-99.9,0.00,South,174,0.1,3.0,-99,0.00,NA,NA,-99.99,WeatherLink_script,2013-02-26 16:08:00,
2013-02-26 11:13:00,40.7,-99.9,0.00,SSW,197,0.2,3.0,-99,0.00,NA,NA,-99.99,WeatherLink_script,2013-02-26 16:13:00,
2013-02-26 11:18:00,40.2,-99.9,0.00,SSE,163,0.9,1.0,-99,0.00,NA,NA,-99.99,WeatherLink_script,2013-02-26 16:18:00,
2013-02-26 11:24:00,39.5,-99.9,0.00,SE,146,1.7,3.0,-99,0.00,NA,NA,-99.99,WeatherLink_script,2013-02-26 16:24:00,
2013-02-26 11:29:00,39.7,-99.9,0.00,South,175,1.1,3.0,-99,0.00,NA,NA,-99.99,WeatherLink_script,2013-02-26 16:29:00,
2013-02-26 11:34:00,39.6,-99.9,0.00,South,172,0.8,4.0,-99,0.00,NA,NA,-99.99,WeatherLink_script,2013-02-26 16:34:00,
2013-02-26 11:40:00,39.8,-99.9,0.00,SSE,168,1.2,4.0,-99,0.00,NA,NA,-99.99,WeatherLink_script,2013-02-26 16:40:00,
2013-02-26 11:45:00,38.6,-99.9,0.00,SSE,154,2.1,4.0,-99,0.00,NA,NA,-99.99,WeatherLink_script,2013-02-26 16:45:00,
2013-02-26 11:51:00,39.1,-99.9,0.00,SSE,159,1.0,2.0,-99,0.00,NA,NA,-99.99,WeatherLink_script,2013-02-26 16:51:00,
2013-02-26 11:56:00,38.4,-99.9,0.00,SSE,148,1.5,3.0,-99,0.00,NA,NA,-99.99,WeatherLink_script,2013-02-26 16:56:00,
2013-02-26 12:01:00,39.2,-99.9,0.00,SE,139,1.3,3.0,-99,0.00,NA,NA,-99.99,WeatherLink_script,2013-02-26 17:01:00,
2013-02-26 12:07:00,38.8,-99.9,0.00,South,173,2.4,4.0,-99,0.00,NA,NA,-99.99,WeatherLink_script,2013-02-26 17:07:00,
2013-02-26 12:12:00,39.5,-99.9,0.00,South,174,1.6,4.0,-99,0.00,NA,NA,-99.99,WeatherLink_script,2013-02-26 17:12:00,
2013-02-26 12:17:00,40.3,-99.9,0.00,SE,144,2.6,4.0,-99,0.00,NA,NA,-99.99,WeatherLink_script,2013-02-26 17:17:00,
2013-02-26 12:23:00,40.2,-99.9,0.00,SSE,165,1.8,2.0,-99,0.00,NA,NA,-99.99,WeatherLink_script,2013-02-26 17:23:00,
2013-02-26 12:28:00,40.1,-99.9,0.00,SSE,154,1.8,3.0,-99,0.00,NA,NA,-99.99,WeatherLink_script,2013-02-26 17:28:00,
2013-02-26 12:33:00,39.9,-99.9,0.00,SSE,166,1.4,4.0,-99,0.00,NA,NA,-99.99,WeatherLink_script,2013-02-26 17:33:00,
2013-02-26 12:38:00,39.8,-99.9,0.00,South,170,2.1,4.0,-99,0.00,NA,NA,-99.99,WeatherLink_script,2013-02-26 17:38:00,
2013-02-26 12:43:00,39.5,-99.9,0.00,South,169,1.4,4.0,-99,0.00,NA,NA,-99.99,WeatherLink_script,2013-02-26 17:43:00,
2013-02-26 12:49:00,38.8,-99.9,0.00,South,171,3.1,4.0,-99,0.00,NA,NA,-99.99,WeatherLink_script,2013-02-26 17:49:00,
2013-02-26 12:54:00,38.6,-99.9,0.00,SSE,154,2.8,5.0,-99,0.00,NA,NA,-99.99,WeatherLink_script,2013-02-26 17:54:00,
2013-02-26 12:59:00,38.0,-99.9,0.00,SSE,165,3.9,5.0,-99,0.00,NA,NA,-99.99,WeatherLink_script,2013-02-26 17:59:00,
2013-02-26 13:05:00,39.0,-99.9,0.00,SSE,167,2.3,5.0,-99,0.00,NA,NA,-99.99,WeatherLink_script,2013-02-26 18:05:00,
2013-02-26 13:10:00,38.9,-99.9,0.00,South,171,2.4,5.0,-99,0.00,NA,NA,-99.99,WeatherLink_script,2013-02-26 18:10:00,
2013-02-26 13:15:00,39.2,-99.9,0.00,SSE,166,1.4,5.0,-99,0.00,NA,NA,-99.99,WeatherLink_script,2013-02-26 18:15:00,
2013-02-26 13:21:00,39.5,-99.9,0.00,South,171,1.9,5.0,-99,0.00,NA,NA,-99.99,WeatherLink_script,2013-02-26 18:21:00,
2013-02-26 13:26:00,39.4,-99.9,0.00,SSE,166,1.5,5.0,-99,0.00,NA,NA,-99.99,WeatherLink_script,2013-02-26 18:26:00,
2013-02-26 13:31:00,39.6,-99.9,0.00,SSE,156,1.3,2.0,-99,0.00,NA,NA,-99.99,WeatherLink_script,2013-02-26 18:31:00,
2013-02-26 13:37:00,39.0,-99.9,0.00,SSE,166,1.7,5.0,-99,0.00,NA,NA,-99.99,WeatherLink_script,2013-02-26 18:37:00,
2013-02-26 13:42:00,39.5,-99.9,0.00,SSE,151,2.7,5.0,-99,0.00,NA,NA,-99.99,WeatherLink_script,2013-02-26 18:42:00,
2013-02-26 13:47:00,41.3,-99.9,0.00,SSE,163,2.5,5.0,-99,0.00,NA,NA,-99.99,WeatherLink_script,2013-02-26 18:47:00,
2013-02-26 13:53:00,43.9,-99.9,0.00,South,169,1.9,4.0,-99,0.00,NA,NA,-99.99,WeatherLink_script,2013-02-26 18:53:00,
2013-02-26 13:58:00,43.9,-99.9,0.00,SE,140,2.8,4.0,-99,0.00,NA,NA,-99.99,WeatherLink_script,2013-02-26 18:58:00,
2013-02-26 14:03:00,43.7,-99.9,0.00,South,173,0.8,4.0,-99,0.00,NA,NA,-99.99,WeatherLink_script,2013-02-26 19:03:00,
2013-02-26 14:09:00,42.9,-99.9,0.00,SSE,163,2.9,3.0,-99,0.00,NA,NA,-99.99,WeatherLink_script,2013-02-26 19:09:00,
2013-02-26 14:14:00,43.1,-99.9,0.00,SSE,154,0.9,4.0,-99,0.00,NA,NA,-99.99,WeatherLink_script,2013-02-26 19:14:00,
2013-02-26 14:20:00,42.7,-99.9,0.00,SSE,148,0.4,4.0,-99,0.00,NA,NA,-99.99,WeatherLink_script,2013-02-26 19:20:00,
2013-02-26 14:25:00,42.3,-99.9,0.00,West,277,0.9,4.0,-99,0.00,NA,NA,-99.99,WeatherLink_script,2013-02-26 19:25:00,
2013-02-26 14:30:00,39.3,-99.9,0.00,West,264,4.1,5.0,-99,0.00,NA,NA,-99.99,WeatherLink_script,2013-02-26 19:30:00,
2013-02-26 14:36:00,38.1,-99.9,0.00,West,269,2.8,5.0,-99,0.00,NA,NA,-99.99,WeatherLink_script,2013-02-26 19:36:00,
2013-02-26 14:41:00,38.7,-99.9,0.00,West,260,0.4,5.0,-99,0.00,NA,NA,-99.99,WeatherLink_script,2013-02-26 19:41:00,
2013-02-26 14:46:00,38.9,-99.9,0.00,SW,220,0.0,0.0,-99,0.00,NA,NA,-99.99,WeatherLink_script,2013-02-26 19:46:00,
2013-02-26 14:52:00,38.2,-99.9,0.00,West,270,1.4,2.0,-99,0.00,NA,NA,-99.99,WeatherLink_script,2013-02-26 19:52:00,
2013-02-26 14:57:00,37.7,-99.9,0.00,WNW,285,1.5,3.0,-99,0.00,NA,NA,-99.99,WeatherLink_script,2013-02-26 19:57:00,
2013-02-26 15:02:00,37.4,-99.9,0.00,North,359,1.8,4.0,-99,0.00,NA,NA,-99.99,WeatherLink_script,2013-02-26 20:02:00,
2013-02-26 15:08:00,37.1,-99.9,0.00,North,10,1.6,4.0,-99,0.00,NA,NA,-99.99,WeatherLink_script,2013-02-26 20:08:00,
2013-02-26 15:13:00,37.0,-99.9,0.00,SW,231,1.8,4.0,-99,0.00,NA,NA,-99.99,WeatherLink_script,2013-02-26 20:13:00,
2013-02-26 15:18:00,36.7,-99.9,0.00,WNW,292,1.6,2.0,-99,0.00,NA,NA,-99.99,WeatherLink_script,2013-02-26 20:18:00,
2013-02-26 15:24:00,37.0,-99.9,0.00,SW,217,1.3,2.0,-99,0.00,NA,NA,-99.99,WeatherLink_script,2013-02-26 20:24:00,
2013-02-26 15:29:00,37.1,-99.9,0.00,NNE,13,0.1,2.0,-99,0.00,NA,NA,-99.99,WeatherLink_script,2013-02-26 20:29:00,
2013-02-26 15:34:00,37.0,-99.9,0.00,West,267,0.7,1.0,-99,0.00,NA,NA,-99.99,WeatherLink_script,2013-02-26 20:34:00,
2013-02-26 15:40:00,37.0,-99.9,0.00,NNE,22,0.2,1.0,-99,0.00,NA,NA,-99.99,WeatherLink_script,2013-02-26 20:40:00,
2013-02-26 15:45:00,37.1,-99.9,0.00,NW,318,1.1,1.1,-99,0.00,NA,NA,-99.99,WeatherLink_script,2013-02-26 20:45:00,
2013-02-26 15:50:00,37.0,-99.9,0.00,SSW,203,0.4,2.0,-99,0.00,NA,NA,-99.99,WeatherLink_script,2013-02-26 20:50:00,
2013-02-26 15:56:00,37.4,-99.9,0.00,WSW,245,0.3,2.0,-99,0.00,NA,NA,-99.99,WeatherLink_script,2013-02-26 20:56:00,
2013-02-26 16:01:00,37.7,-99.9,0.00,SSE,167,0.0,2.0,-99,0.00,NA,NA,-99.99,WeatherLink_script,2013-02-26 21:01:00,
2013-02-26 16:07:00,37.8,-99.9,0.00,SSW,192,0.0,0.0,-99,0.00,NA,NA,-99.99,WeatherLink_script,2013-02-26 21:07:00,
2013-02-26 16:12:00,37.4,-99.9,0.00,SSW,195,0.0,0.0,-99,0.00,NA,NA,-99.99,WeatherLink_script,2013-02-26 21:12:00,
2013-02-26 16:17:00,37.3,-99.9,0.00,South,183,0.0,0.0,-99,0.00,NA,NA,-99.99,WeatherLink_script,2013-02-26 21:17:00,
2013-02-26 16:22:00,36.7,-99.9,0.00,SSW,200,0.0,0.0,-99,0.00,NA,NA,-99.99,WeatherLink_script,2013-02-26 21:22:00,
2013-02-26 16:28:00,36.4,-99.9,0.00,South,187,0.0,0.0,-99,0.00,NA,NA,-99.99,WeatherLink_script,2013-02-26 21:28:00,
2013-02-26 16:33:00,36.2,-99.9,0.00,WSW,251,1.4,2.0,-99,0.00,NA,NA,-99.99,WeatherLink_script,2013-02-26 21:33:00,
2013-02-26 16:38:00,36.0,-99.9,0.00,ENE,57,0.0,2.0,-99,0.00,NA,NA,-99.99,WeatherLink_script,2013-02-26 21:38:00,
2013-02-26 16:44:00,35.9,-99.9,0.00,NNW,345,1.0,2.0,-99,0.00,NA,NA,-99.99,WeatherLink_script,2013-02-26 21:44:00,
2013-02-26 16:49:00,35.8,-99.9,0.00,North,11,2.4,3.0,-99,0.00,NA,NA,-99.99,WeatherLink_script,2013-02-26 21:49:00,
2013-02-26 16:54:00,35.6,-99.9,0.00,North,9,0.2,5.0,-99,0.00,NA,NA,-99.99,WeatherLink_script,2013-02-26 21:54:00,
2013-02-26 16:59:00,35.5,-99.9,0.00,South,170,2.1,5.0,-99,0.00,NA,NA,-99.99,WeatherLink_script,2013-02-26 21:59:00,
2013-02-26 17:04:00,35.4,-99.9,0.00,SW,217,1.6,5.0,-99,0.00,NA,NA,-99.99,WeatherLink_script,2013-02-26 22:04:00,
2013-02-26 17:10:00,35.3,-99.9,0.00,SSW,208,1.0,5.0,-99,0.00,NA,NA,-99.99,WeatherLink_script,2013-02-26 22:10:00,
2013-02-26 17:15:00,35.0,-99.9,0.00,South,180,0.1,1.0,-99,0.00,NA,NA,-99.99,WeatherLink_script,2013-02-26 22:15:00,
2013-02-26 17:21:00,35.0,-99.9,0.00,South,178,0.9,2.0,-99,0.00,NA,NA,-99.99,WeatherLink_script,2013-02-26 22:21:00,
2013-02-26 17:26:00,35.0,-99.9,0.00,SSW,192,0.3,2.0,-99,0.00,NA,NA,-99.99,WeatherLink_script,2013-02-26 22:26:00,
2013-02-26 17:31:00,34.8,-99.9,0.00,South,182,0.2,2.0,-99,0.00,NA,NA,-99.99,WeatherLink_script,2013-02-26 22:31:00,
2013-02-26 17:36:00,34.9,-99.9,0.00,SW,220,1.9,2.0,-99,0.00,NA,NA,-99.99,WeatherLink_script,2013-02-26 22:36:00,
2013-02-26 17:42:00,34.8,-99.9,0.00,NE,45,0.7,3.0,-99,0.00,NA,NA,-99.99,WeatherLink_script,2013-02-26 22:42:00,
2013-02-26 17:47:00,34.7,-99.9,0.00,SW,231,1.4,3.0,-99,0.00,NA,NA,-99.99,WeatherLink_script,2013-02-26 22:47:00,
2013-02-26 17:52:00,34.8,-99.9,0.00,SSW,204,0.3,3.0,-99,0.00,NA,NA,-99.99,WeatherLink_script,2013-02-26 22:52:00,
2013-02-26 17:58:00,34.7,-99.9,0.00,SSE,168,0.1,1.0,-99,0.00,NA,NA,-99.99,WeatherLink_script,2013-02-26 22:58:00,
2013-02-26 18:03:00,34.7,-99.9,0.00,West,273,1.0,3.0,-99,0.00,NA,NA,-99.99,WeatherLink_script,2013-02-26 23:03:00,
2013-02-26 18:08:00,34.4,-99.9,0.00,South,182,0.1,3.0,-99,0.00,NA,NA,-99.99,WeatherLink_script,2013-02-26 23:08:00,
2013-02-26 18:14:00,34.3,-99.9,0.00,South,178,0.4,3.0,-99,0.00,NA,NA,-99.99,WeatherLink_script,2013-02-26 23:14:00,
2013-02-26 18:19:00,34.5,-99.9,0.00,NW,326,0.6,2.0,-99,0.00,NA,NA,-99.99,WeatherLink_script,2013-02-26 23:19:00,
2013-02-26 18:24:00,34.4,-99.9,0.00,SSW,212,0.4,3.0,-99,0.00,NA,NA,-99.99,WeatherLink_script,2013-02-26 23:24:00,
2013-02-26 18:30:00,34.5,-99.9,0.00,NNE,17,0.2,3.0,-99,0.00,NA,NA,-99.99,WeatherLink_script,2013-02-26 23:30:00,
2013-02-26 18:35:00,34.4,-99.9,0.00,SSE,152,1.5,3.0,-99,0.00,NA,NA,-99.99,WeatherLink_script,2013-02-26 23:35:00,
2013-02-26 18:40:00,34.7,-99.9,0.00,WSW,251,2.0,3.0,-99,0.00,NA,NA,-99.99,WeatherLink_script,2013-02-26 23:40:00,
2013-02-26 18:46:00,34.4,-99.9,0.00,South,174,0.1,3.0,-99,0.00,NA,NA,-99.99,WeatherLink_script,2013-02-26 23:46:00,
2013-02-26 18:51:00,34.3,-99.9,0.00,SE,144,0.7,3.0,-99,0.00,NA,NA,-99.99,WeatherLink_script,2013-02-26 23:51:00,
2013-02-26 18:57:00,34.1,-99.9,0.00,SSW,196,0.0,0.0,-99,0.00,NA,NA,-99.99,WeatherLink_script,2013-02-26 23:57:00,
2013-02-26 19:02:00,34.2,-99.9,0.00,SSW,196,0.8,1.0,-99,0.00,NA,NA,-99.99,WeatherLink_script,2013-02-27 00:02:00,
2013-02-26 19:07:00,34.2,-99.9,0.00,SSW,199,1.2,3.0,-99,0.00,NA,NA,-99.99,WeatherLink_script,2013-02-27 00:07:00,
2013-02-26 19:13:00,34.3,-99.9,0.00,South,186,2.2,3.0,-99,0.00,NA,NA,-99.99,WeatherLink_script,2013-02-27 00:13:00,
2013-02-26 19:18:00,34.3,-99.9,0.00,South,183,0.2,3.0,-99,0.00,NA,NA,-99.99,WeatherLink_script,2013-02-27 00:18:00,
2013-02-26 19:23:00,34.1,-99.9,0.00,WSW,239,0.5,3.0,-99,0.00,NA,NA,-99.99,WeatherLink_script,2013-02-27 00:23:00,
2013-02-26 19:29:00,34.1,-99.9,0.00,SSE,166,0.2,1.0,-99,0.00,NA,NA,-99.99,WeatherLink_script,2013-02-27 00:29:00,
2013-02-26 19:34:00,34.3,-99.9,0.00,SW,235,2.1,3.0,-99,0.00,NA,NA,-99.99,WeatherLink_script,2013-02-27 00:34:00,
2013-02-26 19:39:00,34.1,-99.9,0.00,South,169,1.6,3.0,-99,0.00,NA,NA,-99.99,WeatherLink_script,2013-02-27 00:39:00,
2013-02-26 19:45:00,34.2,-99.9,0.00,SE,139,1.6,5.0,-99,0.00,NA,NA,-99.99,WeatherLink_script,2013-02-27 00:45:00,
2013-02-26 19:50:00,34.1,-99.9,0.00,South,178,1.0,5.0,-99,0.00,NA,NA,-99.99,WeatherLink_script,2013-02-27 00:50:00,
2013-02-26 19:55:00,34.3,-99.9,0.00,SSW,207,2.5,5.0,-99,0.00,NA,NA,-99.99,WeatherLink_script,2013-02-27 00:55:00,
2013-02-26 20:01:00,34.1,-99.9,0.00,NNE,20,1.1,1.1,-99,0.00,NA,NA,-99.99,WeatherLink_script,2013-02-27 01:01:00,
2013-02-26 20:06:00,34.0,-99.9,0.00,South,174,0.1,2.0,-99,0.00,NA,NA,-99.99,WeatherLink_script,2013-02-27 01:06:00,
2013-02-26 20:11:00,33.9,-99.9,0.00,SSE,154,1.9,3.0,-99,0.00,NA,NA,-99.99,WeatherLink_script,2013-02-27 01:11:00,
2013-02-26 20:17:00,33.9,-99.9,0.00,South,178,2.0,4.0,-99,0.00,NA,NA,-99.99,WeatherLink_script,2013-02-27 01:17:00,
2013-02-26 20:22:00,34.1,-99.9,0.00,SSW,197,0.9,4.0,-99,0.00,NA,NA,-99.99,WeatherLink_script,2013-02-27 01:22:00,
2013-02-26 20:28:00,34.0,-99.9,0.00,SSW,213,1.2,5.0,-99,0.00,NA,NA,-99.99,WeatherLink_script,2013-02-27 01:28:00,
2013-02-26 20:33:00,33.9,-99.9,0.00,WNW,302,1.0,5.0,-99,0.00,NA,NA,-99.99,WeatherLink_script,2013-02-27 01:33:00,
2013-02-26 20:38:00,33.9,-99.9,0.00,SW,225,0.9,5.0,-99,0.00,NA,NA,-99.99,WeatherLink_script,2013-02-27 01:38:00,
2013-02-26 20:44:00,33.8,-99.9,0.00,South,169,2.4,5.0,-99,0.00,NA,NA,-99.99,WeatherLink_script,2013-02-27 01:44:00,
2013-02-26 20:49:00,33.7,-99.9,0.00,South,190,0.4,5.0,-99,0.00,NA,NA,-99.99,WeatherLink_script,2013-02-27 01:49:00,
2013-02-26 20:54:00,33.7,-99.9,0.00,South,173,1.3,3.0,-99,0.00,NA,NA,-99.99,WeatherLink_script,2013-02-27 01:54:00,
2013-02-26 21:00:00,33.6,-99.9,0.00,South,181,0.3,4.0,-99,0.00,NA,NA,-99.99,WeatherLink_script,2013-02-27 02:00:00,
2013-02-26 21:05:00,33.5,-99.9,0.00,WSW,251,1.8,4.0,-99,0.00,NA,NA,-99.99,WeatherLink_script,2013-02-27 02:05:00,
2013-02-26 21:10:00,33.7,-99.9,0.00,WNW,288,2.8,4.0,-99,0.00,NA,NA,-99.99,WeatherLink_script,2013-02-27 02:10:00,
2013-02-26 21:16:00,33.5,-99.9,0.00,South,173,0.3,4.0,-99,0.00,NA,NA,-99.99,WeatherLink_script,2013-02-27 02:16:00,
2013-02-26 21:21:00,33.6,-99.9,0.00,South,178,1.0,5.0,-99,0.00,NA,NA,-99.99,WeatherLink_script,2013-02-27 02:21:00,
2013-02-26 21:27:00,33.4,-99.9,0.00,South,173,0.4,5.0,-99,0.00,NA,NA,-99.99,WeatherLink_script,2013-02-27 02:27:00,
2013-02-26 21:32:00,33.3,-99.9,0.00,NW,318,0.8,5.0,-99,0.00,NA,NA,-99.99,WeatherLink_script,2013-02-27 02:32:00,
2013-02-26 21:37:00,33.3,-99.9,0.00,South,191,1.0,3.0,-99,0.00,NA,NA,-99.99,WeatherLink_script,2013-02-27 02:37:00,
2013-02-26 21:43:00,33.4,-99.9,0.00,North,357,2.0,4.0,-99,0.00,NA,NA,-99.99,WeatherLink_script,2013-02-27 02:43:00,
2013-02-26 21:48:00,33.1,-99.9,0.00,SW,227,1.1,4.0,-99,0.00,NA,NA,-99.99,WeatherLink_script,2013-02-27 02:48:00,
2013-02-26 21:53:00,33.0,-99.9,0.00,South,178,0.7,5.0,-99,0.00,NA,NA,-99.99,WeatherLink_script,2013-02-27 02:53:00,
2013-02-26 21:59:00,32.9,-99.9,0.00,West,262,3.0,5.0,-99,0.00,NA,NA,-99.99,WeatherLink_script,2013-02-27 02:59:00,
2013-02-26 22:04:00,32.9,-99.9,0.00,South,179,1.9,5.0,-99,0.00,NA,NA,-99.99,WeatherLink_script,2013-02-27 03:04:00,
2013-02-26 22:09:00,32.9,-99.9,0.00,SSE,153,1.3,2.0,-99,0.00,NA,NA,-99.99,WeatherLink_script,2013-02-27 03:09:00,
2013-02-26 22:15:00,32.8,-99.9,0.00,SSE,154,1.3,4.0,-99,0.00,NA,NA,-99.99,WeatherLink_script,2013-02-27 03:15:00,
2013-02-26 22:20:00,32.9,-99.9,0.00,South,184,1.7,5.0,-99,0.00,NA,NA,-99.99,WeatherLink_script,2013-02-27 03:20:00,
2013-02-26 22:25:00,32.8,-99.9,0.00,South,177,1.6,5.0,-99,0.00,NA,NA,-99.99,WeatherLink_script,2013-02-27 03:25:00,
2013-02-26 22:31:00,32.6,-99.9,0.00,South,186,0.9,5.0,-99,0.00,NA,NA,-99.99,WeatherLink_script,2013-02-27 03:31:00,
2013-02-26 22:36:00,32.6,-99.9,0.00,WSW,248,1.1,2.0,-99,0.00,NA,NA,-99.99,WeatherLink_script,2013-02-27 03:36:00,
2013-02-26 22:41:00,32.5,-99.9,0.00,South,181,0.1,2.0,-99,0.00,NA,NA,-99.99,WeatherLink_script,2013-02-27 03:41:00,
2013-02-26 22:46:00,32.2,-99.9,0.00,SE,126,0.0,2.0,-99,0.00,NA,NA,-99.99,WeatherLink_script,2013-02-27 03:46:00,
2013-02-26 22:52:00,32.3,-99.9,0.00,WNW,285,0.2,2.0,-99,0.00,NA,NA,-99.99,WeatherLink_script,2013-02-27 03:52:00,
2013-02-26 22:57:00,32.3,-99.9,0.00,SSE,161,1.2,4.0,-99,0.00,NA,NA,-99.99,WeatherLink_script,2013-02-27 03:57:00,
2013-02-26 23:02:00,32.4,-99.9,0.00,North,7,2.2,4.0,-99,0.00,NA,NA,-99.99,WeatherLink_script,2013-02-27 04:02:00,
2013-02-26 23:07:00,32.0,-99.9,0.00,SSE,163,0.1,4.0,-99,0.00,NA,NA,-99.99,WeatherLink_script,2013-02-27 04:07:00,
2013-02-26 23:13:00,32.0,-99.9,0.00,South,171,0.0,1.0,-99,0.00,NA,NA,-99.99,WeatherLink_script,2013-02-27 04:13:00,
2013-02-26 23:18:00,31.9,-99.9,0.00,SSE,165,0.0,1.0,-99,0.00,NA,NA,-99.99,WeatherLink_script,2013-02-27 04:18:00,
2013-02-26 23:23:00,32.1,-99.9,0.00,SSE,155,0.1,2.0,-99,0.00,NA,NA,-99.99,WeatherLink_script,2013-02-27 04:23:00,
2013-02-26 23:29:00,32.0,-99.9,0.00,South,181,0.5,2.0,-99,0.00,NA,NA,-99.99,WeatherLink_script,2013-02-27 04:29:00,
2013-02-26 23:34:00,32.2,-99.9,0.00,SSE,155,0.3,3.0,-99,0.00,NA,NA,-99.99,WeatherLink_script,2013-02-27 04:34:00,
2013-02-26 23:39:00,32.0,-99.9,0.00,SSE,166,0.4,3.0,-99,0.00,NA,NA,-99.99,WeatherLink_script,2013-02-27 04:39:00,
2013-02-26 23:45:00,31.8,-99.9,0.00,SSE,165,1.1,3.0,-99,0.00,NA,NA,-99.99,WeatherLink_script,2013-02-27 04:45:00,
2013-02-26 23:50:00,31.9,-99.9,0.00,SSE,164,0.6,0.0,-99,0.00,NA,NA,-99.99,WeatherLink_script,2013-02-27 04:50:00,
2013-02-26 23:55:00,31.9,-99.9,0.00,SSE,167,0.7,1.0,-99,0.00,NA,NA,-99.99,WeatherLink_script,2013-02-27 04:55:00,